Back to catalog

COSMOS 2251 DEB

AliveLEO
NORAD 37968·DEBRIS·🇷🇺 Russia

Launched Jun 16, 1993 from Plesetsk Cosmodrome

Loading…

Next Passes (next 24 hours)

TLE

StaleSource: Space-Track

Epoch: Sep 6, 2026, 05:22 UTC

1 37968U 93036BPT 26249.22402044  .00006352  00000-0  41659-3 0  9999
2 37968  73.9970  83.2364 0074045 132.0594 228.6928 15.05603901642391

Track COSMOS 2251 DEB in real time with AllMySat

Download on the App Store